[[{"header":{"parameterUnit":"m.s-1","parameterCategory":1,"la1":30.2991,"la2":30.254,"lo1":-89.0895,"lo2":-89.0444,"dy":0.0017,"dx":0.0017,"nx":28,"ny":28,"refTime":"2023-07-25T03:00:00:Z","depth":0,"parameterNumber":2,"parameterNumberName":"U-component_of_WINDS"},"data":[0,0,0,0,0,0,0,0,0,0,0,0,0,0,0,0,0,0,0,0,0,0,0,0,0,0,0,0,0,0,0,0,0,0,0,0,0,0,0,0,0,0,0,0,0,0,0,0,0,0,0,0,0,0,0,0,0,0,1.0463,1.0464,0,1.0564,1.0565,1.0566,1.0605,1.0605,1.0605,1.0604,1.0708,1.0711,1.0714,0,0,0,0,0,0,0,0,0,0,0,0,0,1.0303,1.0306,1.0463,1.0464,1.0466,1.0564,1.0565,1.0567,1.0605,1.0605,1.0605,1.0604,1.0707,1.071,1.0714,0,0,0,0,0,0,0,0,0,0,0,0,0,1.0385,1.0306,1.0463,1.0497,1.0501,1.0564,1.0565,1.0567,1.0605,1.0605,1.0605,1.0604,1.0706,1.071,1.0714,1.0751,0,0,1.0728,1.073,0,0,0,0,0,0,0,0,1.038,1.0391,1.0491,1.0495,1.0499,1.0572,1.0547,1.0629,1.0606,1.0566,1.0604,1.0604,1.0663,1.0671,1.0691,1.0756,1.076,1.0729,1.0731,1.0733,1.0735,0,0,0,0,0,0,0,1.0374,1.0387,1.0503,1.0492,1.0497,1.0507,1.0518,1.0562,1.0615,1.0569,1.0572,1.0584,1.0665,1.0686,1.0693,1.0762,1.0729,1.0733,1.0735,1.0737,1.0861,1.0861,0,0,0,0,0,0,1.0363,1.0382,1.05,1.0506,1.0437,1.051,1.0522,1.0549,1.0615,1.0625,1.0584,1.0585,1.0679,1.0688,1.0697,1.0744,1.0733,1.0738,1.074,1.086,1.0861,1.0862,0,0,0,0,0,0,1.036,1.0373,1.0496,1.0445,1.0461,1.0513,1.0542,1.0551,1.0572,1.0626,1.0636,1.0596,1.0679,1.0691,1.0737,1.0748,1.074,1.0744,1.086,1.0861,1.0861,1.0837,0,0,0,0,0,0,1.0355,1.0372,1.0387,1.0445,1.0464,1.0534,1.0543,1.0553,1.058,1.0582,1.064,1.0649,1.0679,1.073,1.0742,1.0754,1.0747,1.0859,1.086,1.0861,1.0837,1.0837,1.0837,0,0,0,0,0,1.0349,1.0376,1.0387,1.0401,1.0483,1.0535,1.0545,1.058,1.0581,1.0596,1.063,1.0647,1.0745,1.0735,1.0748,1.0762,1.0858,1.086,1.0861,1.0837,1.0837,1.0837,0,0,0,0,0,0,1.0318,1.0384,1.0397,1.0444,1.0483,1.0541,1.0561,1.0579,1.0619,1.0619,1.066,1.0673,1.0715,1.0743,1.0731,1.08,1.0803,1.0807,1.078,1.0781,1.078,1.0773,1.0751,0,0,0,0,0,1.0316,1.0353,1.0409,1.0444,1.0463,1.0509,1.0533,1.0556,1.0598,1.0615,1.0653,1.0693,1.0733,1.0758,1.0798,1.0841,1.0854,1.0857,1.0857,1.0857,1.086,1.0884,1.0886,1.0866,1.0866,1.0866,0,0,1.0313,1.0354,1.0375,1.0439,1.0472,1.0509,1.0523,1.0561,1.0588,1.0621,1.0667,1.0696,1.0744,1.0788,1.081,1.0813,1.0868,1.0859,1.0858,1.0861,1.0886,1.0888,1.0889,1.0867,1.0867,1.0866,0,0,1.0327,1.0362,1.0395,1.0428,1.0478,1.0508,1.0515,1.0571,1.0591,1.0638,1.0663,1.0696,1.0764,1.0796,1.0822,1.0847,1.0864,1.0859,1.0858,1.0881,1.0883,1.0885,1.0893,1.0896,1.0862,1.0861,1.0861,0,1.0317,1.0374,1.041,1.0447,1.0474,1.0505,1.0538,1.0568,1.0629,1.0646,1.0649,1.0734,1.0768,1.0821,1.0827,1.0847,1.0857,1.0852,1.088,1.0882,1.0884,1.0892,1.0895,1.086,1.0861,1.0861,1.0861,0,1.0359,1.0397,1.0418,1.0475,1.0505,1.054,1.0581,1.0606,1.0626,1.0656,1.0702,1.0745,1.0793,1.0807,1.0828,1.0863,1.0863,1.0872,1.0875,1.0884,1.0893,1.0896,1.0859,1.0859,1.086,1.086,0,0,1.0356,1.0432,1.0439,1.0465,1.0522,1.0553,1.0589,1.0636,1.0657,1.0697,1.0728,1.0784,1.0793,1.0822,1.0846,1.0866,1.0883,1.0873,1.0875,1.0873,1.0923,1.0915,1.0919,1.0894,1.0895,1.0896,1.0919,0,1.0376,1.0442,1.0476,1.0527,1.0563,1.0592,1.0624,1.0662,1.069,1.0724,1.0755,1.0794,1.0803,1.0821,1.0842,1.0876,1.0893,1.0875,1.0923,1.0924,1.091,1.0923,1.0916,1.0936,1.0922,1.0923,1.0924,0,1.041,1.0449,1.0504,1.0557,1.0573,1.06,1.0646,1.0678,1.0722,1.0741,1.0773,1.0796,1.0835,1.0836,1.0889,1.0876,1.0898,1.0917,1.0919,1.0925,1.0924,1.0929,1.0943,1.0946,1.0929,1.0929,1.0928,0,1.0401,1.0468,1.051,1.0531,1.0594,1.0612,1.0639,1.0682,1.0708,1.0748,1.0765,1.0809,1.0833,1.0866,1.09,1.0898,1.095,1.0954,1.0967,1.0966,1.0977,1.0975,1.0994,1.0991,1.0991,1.0991,1.0991,0,1.0421,1.0453,1.0507,1.0532,1.0569,1.0607,1.0642,1.0671,1.0709,1.074,1.0769,1.0797,1.0841,1.0875,1.0903,1.0943,1.0953,1.0969,1.0976,1.0967,1.0965,1.0982,1.0981,1.0991,1.0991,1.0991,1.0991,0,1.0417,1.0455,1.0502,1.0557,1.0571,1.0596,1.0643,1.0668,1.0698,1.0737,1.0748,1.0794,1.0836,1.0874,1.0929,1.0947,1.0988,1.0996,1.0973,1.0976,1.0987,1.0985,1.1017,1.1023,1.1015,1.1015,1.1016,0,1.0427,1.0453,1.051,1.0533,1.0559,1.0596,1.0622,1.066,1.0687,1.0738,1.0757,1.0801,1.0838,1.0902,1.0941,1.0983,1.0993,1.1001,1.1,1.0989,1.0993,1.0991,1.0993,1.1001,1.1,1.1,1.1,0,1.044,1.0457,1.0495,1.0538,1.0569,1.0605,1.0642,1.0659,1.0704,1.0732,1.0775,1.0803,1.086,1.0902,1.0949,1.0976,1.0996,1.1,1.1006,1.0996,1.0981,1.0989,1.0971,1.1,1.1,1.1,1.1,1.1,1.0444,1.0467,1.0511,1.0552,1.0583,1.0617,1.0644,1.0676,1.0713,1.0761,1.0781,1.0824,1.0867,1.0931,1.0959,1.0993,1.0997,1.1004,1.1006,1.1007,1.1005,1.0976,1.1002,1.1002,1.1002,1.1002,1.1002,0,1.0458,1.0487,1.0524,1.0575,1.0607,1.0622,1.0663,1.0689,1.0726,1.0765,1.08,1.0849,1.089,1.0932,1.0975,1.0995,1.1005,1.1005,1.1004,1.101,1.1,1.0991,1.0996,1.0996,1.0996,1.0996,1.0996,1.0996,1.0469,1.051,1.0532,1.0589,1.0618,1.0661,1.0683,1.0714,1.0745,1.0798,1.0832,1.0859,1.0898,1.0945,1.0983,1.0995,1.1009,1.1007,1.102,1.101,1.101,1.101,1.1002,1.101,1.101,1.1027,1.1028,1.1028]},{"header":{"parameterUnit":"m.s-1","parameterCategory":1,"la1":30.2991,"la2":30.254,"lo1":-89.0895,"lo2":-89.0444,"dy":0.0017,"dx":0.0017,"nx":28,"ny":28,"refTime":"2023-07-25T03:00:00:Z","depth":0,"parameterNumber":3,"parameterNumberName":"V-component_of_WINDS"},"data":[0,0,0,0,0,0,0,0,0,0,0,0,0,0,0,0,0,0,0,0,0,0,0,0,0,0,0,0,0,0,0,0,0,0,0,0,0,0,0,0,0,0,0,0,0,0,0,0,0,0,0,0,0,0,0,0,0,0,2.7643,2.7642,0,2.7588,2.7588,2.7587,2.7523,2.7522,2.7521,2.752,2.7463,2.7463,2.7462,0,0,0,0,0,0,0,0,0,0,0,0,0,2.769,2.7689,2.7643,2.7642,2.7641,2.7588,2.7588,2.7587,2.7523,2.7522,2.752,2.7519,2.7464,2.7463,2.7462,0,0,0,0,0,0,0,0,0,0,0,0,0,2.7656,2.7689,2.7643,2.7603,2.7599,2.7589,2.7588,2.7587,2.7523,2.7522,2.752,2.7519,2.7464,2.7463,2.7462,2.7486,0,0,2.7459,2.7459,0,0,0,0,0,0,0,0,2.7658,2.7654,2.761,2.7606,2.7601,2.7561,2.7583,2.7553,2.7523,2.7552,2.752,2.7518,2.7497,2.7493,2.7486,2.7484,2.7481,2.7459,2.7459,2.7458,2.7458,0,0,0,0,0,0,0,2.766,2.7656,2.7621,2.7609,2.7604,2.7587,2.7581,2.7577,2.7533,2.7549,2.7545,2.7539,2.7494,2.7487,2.7484,2.748,2.7459,2.7459,2.7458,2.7458,2.7492,2.7493,0,0,0,0,0,0,2.7669,2.7659,2.7623,2.762,2.7627,2.7588,2.7581,2.7575,2.7533,2.7525,2.754,2.7536,2.749,2.7486,2.7482,2.7506,2.7458,2.7458,2.7457,2.7491,2.7492,2.7494,0,0,0,0,0,0,2.767,2.7666,2.7625,2.7638,2.7631,2.7589,2.7583,2.7575,2.7568,2.7526,2.7518,2.7541,2.7488,2.7483,2.7485,2.7503,2.7457,2.7456,2.7489,2.7491,2.7493,2.7554,0,0,0,0,0,0,2.7672,2.7667,2.7676,2.7638,2.7631,2.763,2.7584,2.7575,2.7566,2.7561,2.7525,2.7518,2.7487,2.7487,2.7484,2.7501,2.7456,2.7487,2.749,2.7492,2.7551,2.7558,2.7565,0,0,0,0,0,2.7674,2.7696,2.7677,2.7673,2.7641,2.7631,2.7626,2.759,2.7568,2.7577,2.755,2.7519,2.7502,2.7488,2.7484,2.7501,2.7486,2.7489,2.7492,2.7547,2.7557,2.7565,0,0,0,0,0,0,2.7737,2.769,2.7669,2.768,2.766,2.762,2.763,2.7602,2.7588,2.7583,2.7538,2.7531,2.7537,2.7519,2.7505,2.7521,2.7489,2.7492,2.7532,2.7541,2.7548,2.7552,2.7455,0,0,0,0,0,2.7753,2.7748,2.7708,2.7721,2.7712,2.7673,2.7667,2.7641,2.7618,2.7609,2.7583,2.7562,2.7551,2.7545,2.7533,2.7548,2.7538,2.7558,2.7565,2.7571,2.7573,2.7577,2.7585,2.7505,2.7505,2.7504,0,0,2.7784,2.7758,2.7758,2.7733,2.7715,2.771,2.7666,2.7664,2.766,2.7609,2.7608,2.7588,2.7561,2.7569,2.7571,2.7554,2.7594,2.7575,2.758,2.7579,2.7582,2.7589,2.7596,2.7507,2.7506,2.7506,0,0,2.7839,2.782,2.7828,2.781,2.7782,2.7756,2.7758,2.7722,2.7706,2.7705,2.7666,2.7661,2.7644,2.7626,2.7615,2.7662,2.7632,2.7659,2.7697,2.7701,2.7707,2.7713,2.7728,2.7734,2.7662,2.7662,2.7662,0,2.7882,2.7874,2.7836,2.7835,2.7825,2.7778,2.7785,2.777,2.774,2.7733,2.7715,2.7692,2.7671,2.7673,2.7684,2.7677,2.7677,2.7663,2.771,2.7715,2.7719,2.7733,2.7739,2.7666,2.7665,2.7665,2.7665,0,2.7927,2.7922,2.7932,2.7904,2.7894,2.7898,2.7859,2.7854,2.7829,2.7804,2.7802,2.7776,2.7757,2.7755,2.7731,2.7753,2.7743,2.7718,2.7685,2.7731,2.7743,2.7748,2.7671,2.7669,2.7668,2.7667,0,0,2.802,2.797,2.7974,2.796,2.7925,2.792,2.7921,2.7903,2.7899,2.7879,2.7878,2.7864,2.784,2.7828,2.78,2.7805,2.7841,2.7779,2.7777,2.7789,2.7861,2.7879,2.7886,2.7821,2.7822,2.7823,2.7863,0,2.8067,2.8066,2.8031,2.8039,2.8033,2.7989,2.7989,2.7968,2.7945,2.7935,2.7909,2.79,2.787,2.7862,2.7864,2.7836,2.7854,2.7833,2.7818,2.7818,2.7825,2.7892,2.7912,2.795,2.7867,2.7868,2.7869,0,2.8122,2.8105,2.8113,2.8077,2.8073,2.8074,2.8053,2.8046,2.802,2.8003,2.7988,2.7957,2.7954,2.7924,2.7918,2.7904,2.7896,2.7881,2.7882,2.7878,2.7845,2.7888,2.7962,2.7967,2.7876,2.7875,2.7875,0,2.8187,2.8166,2.8168,2.8157,2.8116,2.8117,2.81,2.8073,2.8063,2.8045,2.8038,2.802,2.801,2.7996,2.796,2.7942,2.7958,2.7925,2.7941,2.7942,2.7946,2.7946,2.8018,2.7944,2.7944,2.7944,2.7943,0,2.8242,2.8248,2.8196,2.8197,2.8202,2.8161,2.8167,2.8145,2.8121,2.8116,2.8077,2.8073,2.8027,2.8017,2.7989,2.7987,2.7983,2.7968,2.796,2.7971,2.7972,2.7964,2.7959,2.7945,2.7945,2.7944,2.7944,0,2.8315,2.828,2.8279,2.8239,2.823,2.8235,2.82,2.8199,2.8173,2.8167,2.8163,2.8122,2.8109,2.8072,2.8049,2.803,2.8035,2.8022,2.8044,2.8039,2.8057,2.8055,2.8124,2.813,2.8054,2.8055,2.8056,0,2.8351,2.8355,2.8316,2.831,2.8294,2.8285,2.8275,2.8235,2.8226,2.8196,2.8197,2.8181,2.8165,2.8145,2.8113,2.8094,2.8079,2.8104,2.8076,2.8085,2.8077,2.8076,2.8075,2.811,2.8111,2.8112,2.8113,0,2.842,2.8402,2.839,2.8371,2.836,2.8343,2.8324,2.8321,2.8276,2.8267,2.8253,2.8241,2.8217,2.82,2.8176,2.8157,2.8127,2.8122,2.8125,2.8134,2.8146,2.8138,2.8059,2.8121,2.812,2.8119,2.8119,2.8118,2.8474,2.8474,2.8447,2.8433,2.8415,2.8397,2.8393,2.8367,2.8354,2.8332,2.8309,2.8297,2.8269,2.8234,2.8217,2.8205,2.819,2.8194,2.8195,2.8196,2.82,2.815,2.8201,2.8201,2.8201,2.82,2.82,0,2.8538,2.8518,2.8507,2.8481,2.847,2.8444,2.842,2.8413,2.8403,2.838,2.8365,2.8347,2.833,2.8296,2.8276,2.8273,2.8259,2.8269,2.8268,2.8264,2.8216,2.8215,2.8281,2.8281,2.8281,2.8281,2.8281,2.8281,2.8571,2.8569,2.8549,2.8537,2.8516,2.8504,2.8493,2.8476,2.8457,2.844,2.8426,2.8404,2.8376,2.8353,2.8336,2.8326,2.8319,2.8334,2.832,2.8275,2.8267,2.826,2.8259,2.8333,2.8333,2.8368,2.8368,2.8369]}]]